Time,TemperatureF,DewpointF,PressureIn,WindDirection,WindDirectionDegrees,WindSpeedMPH,WindSpeedGustMPH,Humidity,HourlyPrecipIn,Conditions,Clouds,dailyrainin,SoftwareType,DateUTC
2013-04-26 00:12:00,-999.0,-99.9,30.26,North,-999,-999.0,-999.0,-999,0.00,,,0.00,weatherlink.com 1.10,2013-04-26 04:12:00,
2013-04-26 00:27:00,-999.0,-99.9,30.26,North,-999,-999.0,-999.0,-999,0.00,,,0.00,weatherlink.com 1.10,2013-04-26 04:27:00,
2013-04-26 00:42:00,-999.0,-99.9,30.26,North,-999,-999.0,-999.0,-999,0.00,,,0.00,weatherlink.com 1.10,2013-04-26 04:42:00,
2013-04-26 00:57:00,-999.0,-99.9,30.27,North,-999,-999.0,-999.0,-999,0.00,,,0.00,weatherlink.com 1.10,2013-04-26 04:57:00,
2013-04-26 01:12:00,-999.0,-99.9,30.27,North,-999,-999.0,-999.0,-999,0.00,,,0.00,weatherlink.com 1.10,2013-04-26 05:12:00,
2013-04-26 01:27:00,-999.0,-99.9,30.27,North,-999,-999.0,-999.0,-999,0.00,,,0.00,weatherlink.com 1.10,2013-04-26 05:27:00,
2013-04-26 01:42:00,-999.0,-99.9,30.27,North,-999,-999.0,-999.0,-999,0.00,,,0.00,weatherlink.com 1.10,2013-04-26 05:42:00,
2013-04-26 01:57:00,-999.0,-99.9,30.27,North,-999,-999.0,-999.0,-999,0.00,,,0.00,weatherlink.com 1.10,2013-04-26 05:57:00,
2013-04-26 02:12:00,-999.0,-99.9,30.27,North,-999,-999.0,-999.0,-999,0.00,,,0.00,weatherlink.com 1.10,2013-04-26 06:12:00,
2013-04-26 02:27:00,-999.0,-99.9,30.27,North,-999,-999.0,-999.0,-999,0.00,,,0.00,weatherlink.com 1.10,2013-04-26 06:27:00,
2013-04-26 02:42:00,-999.0,-99.9,30.27,North,-999,-999.0,-999.0,-999,0.00,,,0.00,weatherlink.com 1.10,2013-04-26 06:42:00,
2013-04-26 02:57:00,-999.0,-99.9,30.27,North,-999,-999.0,-999.0,-999,0.00,,,0.00,weatherlink.com 1.10,2013-04-26 06:57:00,
2013-04-26 03:12:00,-999.0,-99.9,30.27,North,-999,-999.0,-999.0,-999,0.00,,,0.00,weatherlink.com 1.10,2013-04-26 07:12:00,
2013-04-26 03:28:00,-999.0,-99.9,30.27,North,-999,-999.0,-999.0,-999,0.00,,,0.00,weatherlink.com 1.10,2013-04-26 07:28:00,
2013-04-26 03:43:00,-999.0,-99.9,30.27,North,-999,-999.0,-999.0,-999,0.00,,,0.00,weatherlink.com 1.10,2013-04-26 07:43:00,
2013-04-26 03:58:00,-999.0,-99.9,30.27,North,-999,-999.0,-999.0,-999,0.00,,,0.00,weatherlink.com 1.10,2013-04-26 07:58:00,
2013-04-26 04:13:00,-999.0,-99.9,30.27,North,-999,-999.0,-999.0,-999,0.00,,,0.00,weatherlink.com 1.10,2013-04-26 08:13:00,
2013-04-26 04:28:00,-999.0,-99.9,30.27,North,-999,-999.0,-999.0,-999,0.00,,,0.00,weatherlink.com 1.10,2013-04-26 08:28:00,
2013-04-26 04:43:00,-999.0,-99.9,30.28,North,-999,-999.0,-999.0,-999,0.00,,,0.00,weatherlink.com 1.10,2013-04-26 08:43:00,
2013-04-26 04:58:00,-999.0,-99.9,30.28,North,-999,-999.0,-999.0,-999,0.00,,,0.00,weatherlink.com 1.10,2013-04-26 08:58:00,
2013-04-26 05:13:00,-999.0,-99.9,30.29,North,-999,-999.0,-999.0,-999,0.00,,,0.00,weatherlink.com 1.10,2013-04-26 09:13:00,
2013-04-26 05:28:00,-999.0,-99.9,30.29,North,-999,-999.0,-999.0,-999,0.00,,,0.00,weatherlink.com 1.10,2013-04-26 09:28:00,
2013-04-26 05:43:00,-999.0,-99.9,30.29,North,-999,-999.0,-999.0,-999,0.00,,,0.00,weatherlink.com 1.10,2013-04-26 09:43:00,
2013-04-26 05:58:00,-999.0,-99.9,30.30,North,-999,-999.0,-999.0,-999,0.00,,,0.00,weatherlink.com 1.10,2013-04-26 09:58:00,
2013-04-26 06:13:00,-999.0,-99.9,30.30,North,-999,-999.0,-999.0,-999,0.00,,,0.00,weatherlink.com 1.10,2013-04-26 10:13:00,
2013-04-26 06:28:00,-999.0,-99.9,30.30,North,-999,-999.0,-999.0,-999,0.00,,,0.00,weatherlink.com 1.10,2013-04-26 10:28:00,
2013-04-26 06:44:00,-999.0,-99.9,30.31,North,-999,-999.0,-999.0,-999,0.00,,,0.00,weatherlink.com 1.10,2013-04-26 10:44:00,
2013-04-26 06:59:00,-999.0,-99.9,30.32,North,-999,-999.0,-999.0,-999,0.00,,,0.00,weatherlink.com 1.10,2013-04-26 10:59:00,
2013-04-26 07:14:00,-999.0,-99.9,30.32,North,-999,-999.0,-999.0,-999,0.00,,,0.00,weatherlink.com 1.10,2013-04-26 11:14:00,
2013-04-26 07:29:00,42.8,30.0,30.34,SSW,201,0.0,0.0,62,0.00,,,0.00,weatherlink.com 1.10,2013-04-26 11:29:00,
2013-04-26 07:44:00,44.2,33.0,30.35,SSW,201,0.0,0.0,66,0.00,,,0.00,weatherlink.com 1.10,2013-04-26 11:44:00,
2013-04-26 07:59:00,44.8,34.0,30.36,SSW,201,0.0,0.0,67,0.00,,,0.00,weatherlink.com 1.10,2013-04-26 11:59:00,
2013-04-26 08:14:00,46.0,31.0,30.36,SSW,201,0.0,0.0,56,0.00,,,0.00,weatherlink.com 1.10,2013-04-26 12:14:00,
2013-04-26 08:29:00,49.8,32.0,30.37,SSW,201,0.0,1.0,51,0.00,,,0.00,weatherlink.com 1.10,2013-04-26 12:29:00,
2013-04-26 08:44:00,51.5,36.0,30.39,South,172,0.0,2.0,56,0.00,,,0.00,weatherlink.com 1.10,2013-04-26 12:44:00,
2013-04-26 08:59:00,53.7,34.0,30.39,SSE,153,0.0,1.0,48,0.00,,,0.00,weatherlink.com 1.10,2013-04-26 12:59:00,
2013-04-26 09:14:00,55.6,30.0,30.39,East,81,2.0,2.0,38,0.00,,,0.00,weatherlink.com 1.10,2013-04-26 13:14:00,
2013-04-26 09:29:00,55.9,31.0,30.39,ENE,69,1.0,3.0,39,0.00,,,0.00,weatherlink.com 1.10,2013-04-26 13:29:00,
2013-04-26 09:44:00,55.9,32.0,30.39,NE,55,1.0,3.0,41,0.00,,,0.00,weatherlink.com 1.10,2013-04-26 13:44:00,
2013-04-26 09:59:00,56.5,31.0,30.39,SSW,199,0.0,6.0,38,0.00,,,0.00,weatherlink.com 1.10,2013-04-26 13:59:00,
2013-04-26 10:14:00,58.8,33.0,30.39,SE,130,1.0,6.0,38,0.00,,,0.00,weatherlink.com 1.10,2013-04-26 14:14:00,
2013-04-26 10:29:00,58.6,34.0,30.40,East,101,0.0,7.0,39,0.00,,,0.00,weatherlink.com 1.10,2013-04-26 14:29:00,
2013-04-26 10:44:00,60.3,31.0,30.39,SW,223,0.0,3.0,33,0.00,,,0.00,weatherlink.com 1.10,2013-04-26 14:44:00,
2013-04-26 10:59:00,60.0,33.0,30.37,ENE,68,2.0,4.0,36,0.00,,,0.00,weatherlink.com 1.10,2013-04-26 14:59:00,
2013-04-26 11:14:00,59.7,35.0,30.37,ENE,58,2.0,3.0,40,0.00,,,0.00,weatherlink.com 1.10,2013-04-26 15:14:00,
2013-04-26 11:29:00,60.1,32.0,30.37,East,90,2.0,5.0,35,0.00,,,0.00,weatherlink.com 1.10,2013-04-26 15:29:00,
2013-04-26 11:44:00,60.8,31.0,30.37,South,169,1.0,3.0,32,0.00,,,0.00,weatherlink.com 1.10,2013-04-26 15:44:00,
2013-04-26 11:59:00,63.1,28.0,30.37,WSW,238,0.0,7.0,27,0.00,,,0.00,weatherlink.com 1.10,2013-04-26 15:59:00,
2013-04-26 12:14:00,63.3,32.0,30.35,East,83,0.0,3.0,31,0.00,,,0.00,weatherlink.com 1.10,2013-04-26 16:14:00,
2013-04-26 12:29:00,63.6,31.0,30.35,South,186,2.0,3.0,29,0.00,,,0.00,weatherlink.com 1.10,2013-04-26 16:29:00,
2013-04-26 12:45:00,66.0,33.0,30.34,WSW,249,0.0,2.0,29,0.00,,,0.00,weatherlink.com 1.10,2013-04-26 16:45:00,
2013-04-26 13:00:00,63.1,33.0,30.34,ENE,69,1.0,9.0,32,0.00,,,0.00,weatherlink.com 1.10,2013-04-26 17:00:00,
2013-04-26 13:15:00,63.3,34.0,30.35,NE,42,1.0,7.0,33,0.00,,,0.00,weatherlink.com 1.10,2013-04-26 17:15:00,
2013-04-26 13:30:00,65.9,31.0,30.34,East,84,0.0,3.0,27,0.00,,,0.00,weatherlink.com 1.10,2013-04-26 17:30:00,
2013-04-26 13:45:00,66.7,32.0,30.34,ENE,73,0.0,4.0,27,0.00,,,0.00,weatherlink.com 1.10,2013-04-26 17:45:00,
2013-04-26 14:00:00,65.7,32.0,30.33,East,82,3.0,6.0,28,0.00,,,0.00,weatherlink.com 1.10,2013-04-26 18:00:00,
2013-04-26 14:15:00,65.2,34.0,30.33,East,83,0.0,4.0,31,0.00,,,0.00,weatherlink.com 1.10,2013-04-26 18:15:00,
2013-04-26 14:30:00,65.1,34.0,30.32,West,276,0.0,6.0,31,0.00,,,0.00,weatherlink.com 1.10,2013-04-26 18:30:00,
2013-04-26 14:45:00,65.4,30.0,30.32,ENE,65,0.0,7.0,27,0.00,,,0.00,weatherlink.com 1.10,2013-04-26 18:45:00,
2013-04-26 15:00:00,66.0,30.0,30.32,ESE,105,0.0,8.0,26,0.00,,,0.00,weatherlink.com 1.10,2013-04-26 19:00:00,
2013-04-26 15:15:00,66.3,32.0,30.31,ESE,102,3.0,6.0,28,0.00,,,0.00,weatherlink.com 1.10,2013-04-26 19:15:00,
2013-04-26 15:30:00,65.5,31.0,30.30,ESE,105,0.0,8.0,28,0.00,,,0.00,weatherlink.com 1.10,2013-04-26 19:30:00,
2013-04-26 15:45:00,65.5,32.0,30.29,East,99,0.0,5.0,29,0.00,,,0.00,weatherlink.com 1.10,2013-04-26 19:45:00,
2013-04-26 16:00:00,65.4,33.0,30.28,East,96,2.0,7.0,30,0.00,,,0.00,weatherlink.com 1.10,2013-04-26 20:00:00,
2013-04-26 16:15:00,65.2,32.0,30.27,SSE,156,2.0,6.0,29,0.00,,,0.00,weatherlink.com 1.10,2013-04-26 20:15:00,
2013-04-26 16:30:00,64.9,34.0,30.27,East,86,3.0,8.0,32,0.00,,,0.00,weatherlink.com 1.10,2013-04-26 20:30:00,
2013-04-26 16:45:00,64.7,32.0,30.27,ESE,107,7.0,7.0,30,0.00,,,0.00,weatherlink.com 1.10,2013-04-26 20:45:00,
2013-04-26 17:00:00,64.9,33.0,30.25,ENE,63,2.0,8.0,31,0.00,,,0.00,weatherlink.com 1.10,2013-04-26 21:00:00,
2013-04-26 17:15:00,64.6,34.0,30.25,East,92,3.0,7.0,32,0.00,,,0.00,weatherlink.com 1.10,2013-04-26 21:15:00,
2013-04-26 17:30:00,64.4,32.0,30.25,East,94,8.0,8.0,30,0.00,,,0.00,weatherlink.com 1.10,2013-04-26 21:30:00,
2013-04-26 17:45:00,64.1,32.0,30.25,East,89,1.0,9.0,30,0.00,,,0.00,weatherlink.com 1.10,2013-04-26 21:45:00,
2013-04-26 18:00:00,63.8,30.0,30.25,East,91,5.0,8.0,28,0.00,,,0.00,weatherlink.com 1.10,2013-04-26 22:00:00,
2013-04-26 18:15:00,63.8,32.0,30.25,East,96,0.0,7.0,31,0.00,,,0.00,weatherlink.com 1.10,2013-04-26 22:15:00,
2013-04-26 18:30:00,63.4,31.0,30.26,East,91,1.0,8.0,30,0.00,,,0.00,weatherlink.com 1.10,2013-04-26 22:30:00,
2013-04-26 18:45:00,63.4,32.0,30.27,East,96,1.0,8.0,31,0.00,,,0.00,weatherlink.com 1.10,2013-04-26 22:45:00,
2013-04-26 19:00:00,63.0,32.0,30.27,East,93,2.0,8.0,31,0.00,,,0.00,weatherlink.com 1.10,2013-04-26 23:00:00,
2013-04-26 19:15:00,62.5,31.0,30.27,ENE,66,0.0,4.0,31,0.00,,,0.00,weatherlink.com 1.10,2013-04-26 23:15:00,
2013-04-26 19:30:00,62.2,33.0,30.28,ENE,65,0.0,2.0,34,0.00,,,0.00,weatherlink.com 1.10,2013-04-26 23:30:00,
2013-04-26 19:45:00,61.9,32.0,30.29,ENE,76,0.0,5.0,32,0.00,,,0.00,weatherlink.com 1.10,2013-04-26 23:45:00,
2013-04-26 20:15:00,-999.0,-99.9,30.29,North,-999,-999.0,-999.0,-999,0.00,,,0.00,weatherlink.com 1.10,2013-04-27 00:15:00,
2013-04-26 20:30:00,-999.0,-99.9,30.29,North,-999,-999.0,-999.0,-999,0.00,,,0.00,weatherlink.com 1.10,2013-04-27 00:30:00,
2013-04-26 20:45:00,-999.0,-99.9,30.29,North,-999,-999.0,-999.0,-999,0.00,,,0.00,weatherlink.com 1.10,2013-04-27 00:45:00,
2013-04-26 21:00:00,-999.0,-99.9,30.30,North,-999,-999.0,-999.0,-999,0.00,,,0.00,weatherlink.com 1.10,2013-04-27 01:00:00,
2013-04-26 21:15:00,-999.0,-99.9,30.30,North,-999,-999.0,-999.0,-999,0.00,,,0.00,weatherlink.com 1.10,2013-04-27 01:15:00,
2013-04-26 21:30:00,-999.0,-99.9,30.30,North,-999,-999.0,-999.0,-999,0.00,,,0.00,weatherlink.com 1.10,2013-04-27 01:30:00,
2013-04-26 21:45:00,-999.0,-99.9,30.30,North,-999,-999.0,-999.0,-999,0.00,,,0.00,weatherlink.com 1.10,2013-04-27 01:45:00,
2013-04-26 22:00:00,-999.0,-99.9,30.30,North,-999,-999.0,-999.0,-999,0.00,,,0.00,weatherlink.com 1.10,2013-04-27 02:00:00,
2013-04-26 22:16:00,-999.0,-99.9,30.30,North,-999,-999.0,-999.0,-999,0.00,,,0.00,weatherlink.com 1.10,2013-04-27 02:16:00,
2013-04-26 22:31:00,-999.0,-99.9,30.30,North,-999,-999.0,-999.0,-999,0.00,,,0.00,weatherlink.com 1.10,2013-04-27 02:31:00,
2013-04-26 22:46:00,-999.0,-99.9,30.30,North,-999,-999.0,-999.0,-999,0.00,,,0.00,weatherlink.com 1.10,2013-04-27 02:46:00,
2013-04-26 23:01:00,-999.0,-99.9,30.30,North,-999,-999.0,-999.0,-999,0.00,,,0.00,weatherlink.com 1.10,2013-04-27 03:01:00,
2013-04-26 23:16:00,-999.0,-99.9,30.30,North,-999,-999.0,-999.0,-999,0.00,,,0.00,weatherlink.com 1.10,2013-04-27 03:16:00,
2013-04-26 23:31:00,-999.0,-99.9,30.30,North,-999,-999.0,-999.0,-999,0.00,,,0.00,weatherlink.com 1.10,2013-04-27 03:31:00,
2013-04-26 23:46:00,-999.0,-99.9,30.29,North,-999,-999.0,-999.0,-999,0.00,,,0.00,weatherlink.com 1.10,2013-04-27 03:46:00,